Time,TemperatureF,DewpointF,PressureIn,WindDirection,WindDirectionDegrees,WindSpeedMPH,WindSpeedGustMPH,Humidity,HourlyPrecipIn,Conditions,Clouds,dailyrainin,SoftwareType,DateUTC
2013-03-26 00:03:00,32.0,32.0,-100.00,WNW,290,1.0,2.0,99,0.00,,,-99.99,,2013-03-26 04:03:00,
2013-03-26 00:12:00,32.0,32.0,-100.00,WNW,290,1.0,2.0,99,0.00,,,-99.99,,2013-03-26 04:12:00,
2013-03-26 00:23:00,32.0,32.0,-100.00,WNW,290,1.0,2.0,99,0.00,,,-99.99,,2013-03-26 04:23:00,
2013-03-26 00:33:00,32.0,32.0,-100.00,West,260,0.0,2.0,99,0.00,,,-99.99,,2013-03-26 04:33:00,
2013-03-26 00:43:00,32.0,32.0,-100.00,South,185,1.0,1.0,99,0.00,,,-99.99,,2013-03-26 04:43:00,
2013-03-26 00:52:00,32.0,32.0,-100.00,South,185,1.0,1.0,99,0.00,,,-99.99,,2013-03-26 04:52:00,
2013-03-26 01:02:00,32.0,32.0,-100.00,SW,230,0.0,2.0,99,0.00,,,-99.99,,2013-03-26 05:02:00,
2013-03-26 01:12:00,32.0,32.0,-100.00,SW,215,1.0,2.0,99,0.00,,,-99.99,,2013-03-26 05:12:00,
2013-03-26 01:22:00,32.0,32.0,-100.00,SW,215,1.0,2.0,99,0.00,,,-99.99,,2013-03-26 05:22:00,
2013-03-26 01:32:00,32.0,32.0,-100.00,West,270,1.0,2.0,99,0.00,,,-99.99,,2013-03-26 05:32:00,
2013-03-26 01:42:00,32.0,32.0,-100.00,West,260,2.0,3.0,99,0.00,,,-99.99,,2013-03-26 05:42:00,
2013-03-26 01:52:00,32.0,32.0,-100.00,West,260,2.0,3.0,99,0.00,,,-99.99,,2013-03-26 05:52:00,
2013-03-26 02:12:00,32.0,32.0,-100.00,WNW,290,1.0,3.0,99,0.01,,,-99.99,,2013-03-26 06:12:00,
2013-03-26 02:22:00,32.0,32.0,-100.00,WNW,290,1.0,3.0,99,0.01,,,-99.99,,2013-03-26 06:22:00,
2013-03-26 02:32:00,32.0,32.0,-100.00,NW,305,2.0,4.0,99,0.00,,,-99.99,,2013-03-26 06:32:00,
2013-03-26 02:42:00,32.0,32.0,-100.00,NW,325,1.0,3.0,99,0.00,,,-99.99,,2013-03-26 06:42:00,
2013-03-26 02:52:00,32.0,32.0,-100.00,NW,325,1.0,3.0,99,0.00,,,-99.99,,2013-03-26 06:52:00,
2013-03-26 03:02:00,32.0,32.0,-100.00,NW,305,2.0,3.0,99,0.00,,,-99.99,,2013-03-26 07:02:00,
2013-03-26 03:12:00,32.0,32.0,-100.00,NW,320,1.0,2.0,99,0.00,,,-99.99,,2013-03-26 07:12:00,
2013-03-26 03:22:00,32.0,32.0,-100.00,NW,320,1.0,2.0,99,0.00,,,-99.99,,2013-03-26 07:22:00,
2013-03-26 03:33:00,31.0,31.0,-100.00,NW,305,1.0,1.0,99,0.00,,,-99.99,,2013-03-26 07:33:00,
2013-03-26 03:42:00,30.0,30.0,-100.00,NW,305,1.0,2.0,99,0.00,,,-99.99,,2013-03-26 07:42:00,
2013-03-26 03:52:00,30.0,30.0,-100.00,NW,305,1.0,2.0,99,0.00,,,-99.99,,2013-03-26 07:52:00,
2013-03-26 04:02:00,30.0,29.0,-100.00,West,280,1.0,2.0,99,0.00,,,-99.99,,2013-03-26 08:02:00,
2013-03-26 04:12:00,29.0,29.0,-100.00,West,270,1.0,1.0,99,0.00,,,-99.99,,2013-03-26 08:12:00,
2013-03-26 04:22:00,29.0,29.0,-100.00,West,270,1.0,1.0,99,0.00,,,-99.99,,2013-03-26 08:22:00,
2013-03-26 04:32:00,29.0,29.0,-100.00,WNW,300,1.0,2.0,99,0.00,,,-99.99,,2013-03-26 08:32:00,
2013-03-26 04:42:00,30.0,30.0,-100.00,NW,315,1.0,2.0,99,0.00,,,-99.99,,2013-03-26 08:42:00,
2013-03-26 04:52:00,30.0,30.0,-100.00,NW,310,0.0,1.0,99,0.00,,,-99.99,,2013-03-26 08:52:00,
2013-03-26 05:02:00,30.0,30.0,-100.00,NW,310,0.0,1.0,99,0.00,,,-99.99,,2013-03-26 09:02:00,
2013-03-26 05:12:00,30.0,29.0,-100.00,WNW,300,0.0,1.0,99,0.00,,,-99.99,,2013-03-26 09:12:00,
2013-03-26 05:22:00,30.0,29.0,-100.00,WNW,300,0.0,1.0,99,0.00,,,-99.99,,2013-03-26 09:22:00,
2013-03-26 05:33:00,30.0,30.0,-100.00,NNW,335,0.0,1.0,99,0.00,,,-99.99,,2013-03-26 09:33:00,
2013-03-26 05:43:00,30.0,30.0,-100.00,NW,310,1.0,2.0,99,0.00,,,-99.99,,2013-03-26 09:43:00,
2013-03-26 05:52:00,30.0,30.0,-100.00,West,260,0.0,1.0,99,0.00,,,-99.99,,2013-03-26 09:52:00,
2013-03-26 06:03:00,30.0,30.0,-100.00,West,260,0.0,1.0,99,0.00,,,-99.99,,2013-03-26 10:03:00,
2013-03-26 06:12:00,30.0,30.0,-100.00,West,270,1.0,2.0,99,0.00,,,-99.99,,2013-03-26 10:12:00,
2013-03-26 06:22:00,30.0,30.0,-100.00,WSW,245,1.0,1.0,99,0.00,,,-99.99,,2013-03-26 10:22:00,
2013-03-26 06:32:00,30.0,30.0,-100.00,WSW,245,1.0,1.0,99,0.00,,,-99.99,,2013-03-26 10:32:00,
2013-03-26 06:42:00,30.0,30.0,-100.00,West,270,0.0,1.0,99,0.00,,,-99.99,,2013-03-26 10:42:00,
2013-03-26 06:52:00,30.0,30.0,-100.00,West,270,0.0,1.0,99,0.00,,,-99.99,,2013-03-26 10:52:00,
2013-03-26 07:03:00,30.0,30.0,-100.00,SW,225,1.0,1.0,99,0.00,,,-99.99,,2013-03-26 11:03:00,
2013-03-26 07:12:00,30.0,30.0,-100.00,WSW,255,0.0,1.0,99,0.00,,,-99.99,,2013-03-26 11:12:00,
2013-03-26 07:22:00,30.0,30.0,-100.00,WSW,255,0.0,1.0,99,0.00,,,-99.99,,2013-03-26 11:22:00,
2013-03-26 07:32:00,29.0,29.0,-100.00,West,260,1.0,1.0,99,0.00,,,-99.99,,2013-03-26 11:32:00,
2013-03-26 07:42:00,29.0,29.0,-100.00,NNW,335,3.0,6.0,99,0.00,,,-99.99,,2013-03-26 11:42:00,
2013-03-26 07:52:00,29.0,29.0,-100.00,NNW,335,3.0,6.0,99,0.00,,,-99.99,,2013-03-26 11:52:00,
2013-03-26 08:03:00,31.0,31.0,-100.00,NW,315,3.0,6.0,99,0.00,,,-99.99,,2013-03-26 12:03:00,
2013-03-26 08:12:00,31.0,31.0,-100.00,NNW,340,4.0,9.0,99,0.00,,,-99.99,,2013-03-26 12:12:00,
2013-03-26 08:22:00,31.0,31.0,-100.00,NNW,340,4.0,9.0,99,0.00,,,-99.99,,2013-03-26 12:22:00,
2013-03-26 08:32:00,32.0,32.0,-100.00,NW,315,2.0,9.0,99,0.00,,,-99.99,,2013-03-26 12:32:00,
2013-03-26 08:42:00,33.0,33.0,-100.00,NW,320,3.0,6.0,99,0.00,,,-99.99,,2013-03-26 12:42:00,
2013-03-26 08:52:00,33.0,33.0,-100.00,NW,320,3.0,6.0,99,0.00,,,-99.99,,2013-03-26 12:52:00,
2013-03-26 09:03:00,34.0,34.0,-100.00,NW,325,2.0,5.0,99,0.00,,,-99.99,,2013-03-26 13:03:00,
2013-03-26 09:12:00,36.0,36.0,-100.00,NNW,330,2.0,4.0,99,0.00,,,-99.99,,2013-03-26 13:12:00,
2013-03-26 09:22:00,36.0,36.0,-100.00,NNW,330,2.0,4.0,99,0.00,,,-99.99,,2013-03-26 13:22:00,
2013-03-26 09:32:00,38.0,38.0,-100.00,NNW,340,3.0,5.0,99,0.00,,,-99.99,,2013-03-26 13:32:00,
2013-03-26 09:42:00,39.0,39.0,-100.00,NNW,340,4.0,7.0,99,0.00,,,-99.99,,2013-03-26 13:42:00,
2013-03-26 09:52:00,42.0,39.0,-100.00,NW,310,3.0,7.0,92,0.00,,,-99.99,,2013-03-26 13:52:00,
2013-03-26 10:02:00,42.0,39.0,-100.00,NW,310,3.0,7.0,92,0.00,,,-99.99,,2013-03-26 14:02:00,
2013-03-26 10:11:00,43.0,34.0,-100.00,WNW,300,4.0,9.0,70,0.00,,,-99.99,,2013-03-26 14:11:00,
2013-03-26 10:22:00,43.0,29.0,-100.00,NW,310,5.0,9.0,58,0.00,,,-99.99,,2013-03-26 14:22:00,
2013-03-26 10:33:00,43.0,29.0,-100.00,NW,310,5.0,9.0,58,0.00,,,-99.99,,2013-03-26 14:33:00,
2013-03-26 10:42:00,42.0,27.0,-100.00,North,350,6.0,9.0,56,0.00,,,-99.99,,2013-03-26 14:42:00,
2013-03-26 10:52:00,42.0,27.0,-100.00,North,350,6.0,12.0,56,0.00,,,-99.99,,2013-03-26 14:52:00,
2013-03-26 11:02:00,42.0,27.0,-100.00,North,350,6.0,12.0,56,0.00,,,-99.99,,2013-03-26 15:02:00,
2013-03-26 11:12:00,41.0,26.0,-100.00,NNW,335,8.0,14.0,54,0.00,,,-99.99,,2013-03-26 15:12:00,
2013-03-26 11:22:00,41.0,26.0,-100.00,NNW,335,8.0,14.0,54,0.00,,,-99.99,,2013-03-26 15:22:00,
2013-03-26 11:33:00,43.0,27.0,-100.00,NNW,330,5.0,12.0,54,0.00,,,-99.99,,2013-03-26 15:33:00,
2013-03-26 11:43:00,42.0,25.0,-100.00,NNW,340,7.0,14.0,51,0.00,,,-99.99,,2013-03-26 15:43:00,
2013-03-26 11:52:00,43.0,26.0,-100.00,NNW,330,6.0,13.0,51,0.00,,,-99.99,,2013-03-26 15:52:00,
2013-03-26 12:03:00,43.0,26.0,-100.00,NNW,330,6.0,13.0,51,0.00,,,-99.99,,2013-03-26 16:03:00,
2013-03-26 12:13:00,43.0,25.0,-100.00,NNW,345,6.0,12.0,49,0.00,,,-99.99,,2013-03-26 16:13:00,
2013-03-26 12:22:00,43.0,25.0,-100.00,NNW,345,6.0,12.0,49,0.00,,,-99.99,,2013-03-26 16:22:00,
2013-03-26 12:32:00,44.0,26.0,-100.00,NW,315,5.0,11.0,47,0.00,,,-99.99,,2013-03-26 16:32:00,
2013-03-26 12:42:00,46.0,26.0,-100.00,NW,310,7.0,13.0,46,0.00,,,-99.99,,2013-03-26 16:42:00,
2013-03-26 12:53:00,46.0,26.0,-100.00,NW,310,7.0,13.0,46,0.00,,,-99.99,,2013-03-26 16:53:00,
2013-03-26 13:03:00,47.0,27.0,-100.00,NW,315,6.0,17.0,46,0.00,,,-99.99,,2013-03-26 17:03:00,
2013-03-26 13:12:00,46.0,26.0,-100.00,NW,325,9.0,13.0,44,0.00,,,-99.99,,2013-03-26 17:12:00,
2013-03-26 13:23:00,46.0,26.0,-100.00,NW,325,9.0,13.0,44,0.00,,,-99.99,,2013-03-26 17:23:00,
2013-03-26 13:32:00,47.0,25.0,-100.00,NNW,335,6.0,14.0,42,0.00,,,-99.99,,2013-03-26 17:32:00,
2013-03-26 13:42:00,48.0,26.0,-100.00,WNW,300,6.0,14.0,42,0.00,,,-99.99,,2013-03-26 17:42:00,
2013-03-26 13:52:00,50.0,27.0,-100.00,WNW,300,5.0,14.0,41,0.00,,,-99.99,,2013-03-26 17:52:00,
2013-03-26 14:02:00,50.0,27.0,-100.00,WNW,300,5.0,14.0,41,0.00,,,-99.99,,2013-03-26 18:02:00,
2013-03-26 14:12:00,49.0,26.0,-100.00,NW,320,7.0,13.0,40,0.00,,,-99.99,,2013-03-26 18:12:00,
2013-03-26 14:23:00,49.0,26.0,-100.00,NW,320,7.0,13.0,40,0.00,,,-99.99,,2013-03-26 18:23:00,
2013-03-26 14:34:00,50.0,26.0,-100.00,WNW,290,4.0,12.0,39,0.00,,,-99.99,,2013-03-26 18:34:00,
2013-03-26 14:42:00,48.0,22.0,-100.00,NW,320,6.0,11.0,37,0.00,,,-99.99,,2013-03-26 18:42:00,
2013-03-26 14:52:00,46.0,21.0,-100.00,NW,320,7.0,16.0,37,0.00,,,-99.99,,2013-03-26 18:52:00,
2013-03-26 15:03:00,46.0,21.0,-100.00,NW,320,7.0,16.0,37,0.00,,,-99.99,,2013-03-26 19:03:00,
2013-03-26 15:12:00,46.0,21.0,-100.00,North,0,9.0,16.0,37,0.00,,,-99.99,,2013-03-26 19:12:00,
2013-03-26 15:22:00,47.0,22.0,-100.00,NNW,330,10.0,21.0,37,0.00,,,-99.99,,2013-03-26 19:22:00,
2013-03-26 15:32:00,47.0,22.0,-100.00,NNW,330,10.0,21.0,37,0.00,,,-99.99,,2013-03-26 19:32:00,
2013-03-26 15:42:00,46.0,23.0,-100.00,WNW,295,11.0,22.0,40,0.00,,,-99.99,,2013-03-26 19:42:00,
2013-03-26 15:53:00,46.0,25.0,-100.00,NNW,335,9.0,17.0,43,0.00,,,-99.99,,2013-03-26 19:53:00,
2013-03-26 16:02:00,46.0,25.0,-100.00,NNW,335,9.0,17.0,43,0.00,,,-99.99,,2013-03-26 20:02:00,
2013-03-26 16:13:00,48.0,26.0,-100.00,NW,315,11.0,19.0,42,0.00,,,-99.99,,2013-03-26 20:13:00,
2013-03-26 16:22:00,48.0,26.0,-100.00,NW,315,11.0,19.0,42,0.00,,,-99.99,,2013-03-26 20:22:00,
2013-03-26 16:32:00,47.0,25.0,-100.00,NW,320,9.0,21.0,41,0.00,,,-99.99,,2013-03-26 20:32:00,
2013-03-26 16:42:00,46.0,24.0,-100.00,NW,305,8.0,17.0,42,0.00,,,-99.99,,2013-03-26 20:42:00,
2013-03-26 16:52:00,46.0,24.0,-100.00,NW,305,8.0,17.0,42,0.00,,,-99.99,,2013-03-26 20:52:00,
2013-03-26 17:02:00,46.0,24.0,-100.00,WNW,300,9.0,16.0,42,0.00,,,-99.99,,2013-03-26 21:02:00,
2013-03-26 17:12:00,46.0,24.0,-100.00,WNW,300,8.0,19.0,43,0.00,,,-99.99,,2013-03-26 21:12:00,
2013-03-26 17:22:00,46.0,24.0,-100.00,WNW,300,8.0,19.0,43,0.00,,,-99.99,,2013-03-26 21:22:00,
2013-03-26 17:33:00,48.0,26.0,-100.00,NW,305,6.0,17.0,42,0.00,,,-99.99,,2013-03-26 21:33:00,
2013-03-26 17:43:00,48.0,25.0,-100.00,NW,310,6.0,19.0,41,0.00,,,-99.99,,2013-03-26 21:43:00,
2013-03-26 17:52:00,45.0,24.0,-100.00,NW,320,9.0,18.0,42,0.00,,,-99.99,,2013-03-26 21:52:00,
2013-03-26 18:02:00,45.0,24.0,-100.00,NW,320,9.0,18.0,42,0.00,,,-99.99,,2013-03-26 22:02:00,
2013-03-26 18:12:00,46.0,24.0,-100.00,WNW,300,7.0,17.0,42,0.00,,,-99.99,,2013-03-26 22:12:00,
2013-03-26 18:22:00,46.0,24.0,-100.00,WNW,300,7.0,17.0,42,0.00,,,-99.99,,2013-03-26 22:22:00,
2013-03-26 18:33:00,47.0,24.0,-100.00,NW,315,7.0,15.0,41,0.00,,,-99.99,,2013-03-26 22:33:00,
2013-03-26 18:42:00,46.0,24.0,-100.00,NW,325,11.0,19.0,41,0.00,,,-99.99,,2013-03-26 22:42:00,
2013-03-26 18:52:00,46.0,24.0,-100.00,NW,325,11.0,19.0,41,0.00,,,-99.99,,2013-03-26 22:52:00,
2013-03-26 19:01:00,45.0,23.0,-100.00,WNW,300,6.0,20.0,42,0.00,,,-99.99,,2013-03-26 23:01:00,
2013-03-26 19:10:00,44.0,23.0,-100.00,NW,315,7.0,18.0,43,0.00,,,-99.99,,2013-03-26 23:10:00,
2013-03-26 19:22:00,44.0,23.0,-100.00,NW,315,7.0,18.0,43,0.00,,,-99.99,,2013-03-26 23:22:00,
2013-03-26 19:32:00,44.0,23.0,-100.00,NW,320,9.0,14.0,44,0.00,,,-99.99,,2013-03-26 23:32:00,
2013-03-26 19:42:00,44.0,23.0,-100.00,NW,320,7.0,16.0,44,0.00,,,-99.99,,2013-03-26 23:42:00,
2013-03-26 19:52:00,43.0,23.0,-100.00,NW,310,7.0,17.0,45,0.00,,,-99.99,,2013-03-26 23:52:00,
2013-03-26 20:02:00,43.0,23.0,-100.00,NW,310,7.0,17.0,45,0.00,,,-99.99,,2013-03-27 00:02:00,
2013-03-26 20:12:00,42.0,23.0,-100.00,NW,320,6.0,14.0,47,0.00,,,-99.99,,2013-03-27 00:12:00,
2013-03-26 20:22:00,41.0,23.0,-100.00,NNW,340,5.0,14.0,48,0.00,,,-99.99,,2013-03-27 00:22:00,
2013-03-26 20:32:00,41.0,23.0,-100.00,NNW,340,5.0,14.0,48,0.00,,,-99.99,,2013-03-27 00:32:00,
2013-03-26 20:42:00,40.0,23.0,-100.00,NW,315,5.0,11.0,50,0.00,,,-99.99,,2013-03-27 00:42:00,
2013-03-26 20:52:00,40.0,24.0,-100.00,NW,320,6.0,10.0,51,0.00,,,-99.99,,2013-03-27 00:52:00,
2013-03-26 21:02:00,40.0,24.0,-100.00,NW,320,6.0,10.0,51,0.00,,,-99.99,,2013-03-27 01:02:00,
2013-03-26 21:12:00,39.0,24.0,-100.00,North,0,4.0,7.0,53,0.00,,,-99.99,,2013-03-27 01:12:00,
2013-03-26 21:23:00,40.0,24.0,-100.00,NNW,340,7.0,12.0,52,0.00,,,-99.99,,2013-03-27 01:23:00,
2013-03-26 21:33:00,40.0,24.0,-100.00,NNW,340,7.0,12.0,52,0.00,,,-99.99,,2013-03-27 01:33:00,
2013-03-26 21:42:00,40.0,24.0,-100.00,NNW,345,5.0,12.0,53,0.00,,,-99.99,,2013-03-27 01:42:00,
2013-03-26 21:52:00,40.0,24.0,-100.00,NNW,330,6.0,12.0,53,0.00,,,-99.99,,2013-03-27 01:52:00,
2013-03-26 22:03:00,40.0,24.0,-100.00,NNW,330,6.0,12.0,53,0.00,,,-99.99,,2013-03-27 02:03:00,
2013-03-26 22:12:00,40.0,24.0,-100.00,NNW,330,7.0,13.0,53,0.00,,,-99.99,,2013-03-27 02:12:00,
2013-03-26 22:22:00,40.0,24.0,-100.00,NNW,330,7.0,13.0,53,0.00,,,-99.99,,2013-03-27 02:22:00,
2013-03-26 22:32:00,39.0,24.0,-100.00,NW,310,6.0,16.0,55,0.00,,,-99.99,,2013-03-27 02:32:00,
2013-03-26 22:42:00,39.0,25.0,-100.00,WNW,300,6.0,17.0,56,0.00,,,-99.99,,2013-03-27 02:42:00,
2013-03-26 22:52:00,39.0,25.0,-100.00,NW,305,5.0,12.0,57,0.00,,,-99.99,,2013-03-27 02:52:00,
2013-03-26 23:02:00,39.0,25.0,-100.00,NW,305,5.0,12.0,57,0.00,,,-99.99,,2013-03-27 03:02:00,
2013-03-26 23:12:00,39.0,26.0,-100.00,WNW,300,9.0,14.0,59,0.00,,,-99.99,,2013-03-27 03:12:00,
2013-03-26 23:22:00,39.0,26.0,-100.00,WNW,300,9.0,14.0,59,0.00,,,-99.99,,2013-03-27 03:22:00,
2013-03-26 23:33:00,38.0,26.0,-100.00,WNW,300,3.0,8.0,60,0.00,,,-99.99,,2013-03-27 03:33:00,
2013-03-26 23:42:00,38.0,26.0,-100.00,West,270,4.0,9.0,60,0.00,,,-99.99,,2013-03-27 03:42:00,
2013-03-26 23:52:00,38.0,26.0,-100.00,West,270,4.0,9.0,60,0.00,,,-99.99,,2013-03-27 03:52:00,